CZ-6A R/B, 54236

Orbit data source: Space-Track

CZ-6A R/B, 54236 is space debris in SSO originally from a launch on Fri, 11 Nov 2022 UTC launched from the Taiyaun Space Center, China (TSC). Debris objects in space refer to the collection of defunct objects orbiting the Earth. Examples of debris include non-operational satellites, rocket bodies, and fragments generated from explosions, collisions, or faulty payload assembly.

Loading next visibility...
Identifier
54236, 2022-151B
Orbit
SSO
Country
Flag of CNCN / PRC
Related business
Manufacturer
SAST
Mission
Spacecraft
Bus & Motor
CZ-6A STAGE 2, YF-115
Mass
~6,000 kg wet, ~6,000 kg dry
Launch date (UTC)
2022-11-11 (3 years ago)
Launch vehicle
Unknown
Launch site
Taiyaun Space Center, China (TSC)
Object type
Payload
Rocket body
Debris
Shape & HBR
Unknown shape, 5.5 m
Radar Cross Section
Large (>1 m²)

Expand to show TLE details & history
Last TLE update: 15 hours ago

TLE from 15 hours ago
0 CZ-6A R/B
1 54236U 22151B   25350.23639508  .00000051  00000-0  53660-4 0  9992
2 54236  98.8469 349.4442 0046022 137.9664 222.5052 14.09266877158873
Epoch: 2025-12-16T05:40Z
TLE epoch observation values (Epoch: 2025-12-16T05:40:24.534Z)
Latitude
-0.00004°
Longitude
179.21848°
Altitude
889.416 km
Speed
7.395 km/s
True Right ascension
23h 17m 46s
True Declination
0° 00' 00"
Sunlit
Object was in daylight at epoch
Visualization orbit readout
Latitude
Unknown
Longitude
Unknown
Altitude
Unknown
Speed
Unknown
Apparent Right ascension
Unknown
Apparent Declination
Unknown
Sunlit
N/A
Visualization observer readout
Local Sidereal Time
19:43:02
Azimuth
Unknown
Elevation
Unknown
Doppler factor
Unknown
Orbital elements
Apogee altitude
892.368 km
Perigee altitude
825.754 km
Semi-major axis
7,237.198 km
Eccentricity
0.0046
Inclination
98.8469°
RAAN
349.4442°
Arg. of periapsis
137.9664°
True anomaly
222.15038°
Mean anomaly
222.5052°
Eccentric anomaly
222.32764°
Mean motion
3.52523 °/min
Orbital period
102.12 mins
BSTAR
0.00005366
Loading maneuver chart data...
Computing Atmospheric mass density...
Loading historical data...
Loading historical data...
Loading historical data...
Loading historical data...
Loading historical data...
Loading historical data...
Loading historical data...

Documentation

Showing up to 5 results
|